Year,Month,Day,Hour,Minute,Value (Times are PST for temperature in C)
2006,02,17,00,00,0.80
2006,02,17,00,01,0.80
2006,02,17,00,02,0.70
2006,02,17,00,03,0.70
2006,02,17,00,04,0.70
2006,02,17,00,05,0.70
2006,02,17,00,06,0.70
2006,02,17,00,07,0.70
2006,02,17,00,08,0.70
2006,02,17,00,09,0.70
2006,02,17,00,10,0.70
2006,02,17,00,11,0.70
2006,02,17,00,12,0.70
2006,02,17,00,13,0.70
2006,02,17,00,14,0.70
2006,02,17,00,15,0.70
2006,02,17,00,16,0.70
2006,02,17,00,17,0.70
2006,02,17,00,18,0.70
2006,02,17,00,19,0.80
2006,02,17,00,20,0.80
2006,02,17,00,21,0.80
2006,02,17,00,22,0.80
2006,02,17,00,23,0.80
2006,02,17,00,24,0.80
2006,02,17,00,25,0.80
2006,02,17,00,26,0.80
2006,02,17,00,27,0.80
2006,02,17,00,28,0.80
2006,02,17,00,29,0.80
2006,02,17,00,30,0.80
2006,02,17,00,31,0.80
2006,02,17,00,32,0.80
2006,02,17,00,33,0.80
2006,02,17,00,34,0.80
2006,02,17,00,35,0.80
2006,02,17,00,36,0.80
2006,02,17,00,37,0.80
2006,02,17,00,38,0.80
2006,02,17,00,39,0.80
2006,02,17,00,40,0.80
2006,02,17,00,41,0.70
2006,02,17,00,42,0.70
2006,02,17,00,43,0.70
2006,02,17,00,44,0.70
2006,02,17,00,45,0.70
2006,02,17,00,46,0.70
2006,02,17,00,47,0.70
2006,02,17,00,48,0.70
2006,02,17,00,49,0.60
2006,02,17,00,50,0.60
2006,02,17,00,51,0.60
2006,02,17,00,52,0.60
2006,02,17,00,53,0.60
2006,02,17,00,54,0.60
2006,02,17,00,55,0.60
2006,02,17,00,56,0.60
2006,02,17,00,57,0.60
2006,02,17,00,58,0.60
2006,02,17,00,59,0.60
2006,02,17,01,00,0.60
2006,02,17,01,01,0.50
2006,02,17,01,02,0.50
2006,02,17,01,03,0.50
2006,02,17,01,04,0.50
2006,02,17,01,05,0.50
2006,02,17,01,06,0.50
2006,02,17,01,07,0.50
2006,02,17,01,08,0.50
2006,02,17,01,09,0.40
2006,02,17,01,10,0.40
2006,02,17,01,11,0.40
2006,02,17,01,12,0.40
2006,02,17,01,13,0.40
2006,02,17,01,14,0.40
2006,02,17,01,15,0.40
2006,02,17,01,16,0.40
2006,02,17,01,17,0.40
2006,02,17,01,18,0.40
2006,02,17,01,19,0.40
2006,02,17,01,20,0.40
2006,02,17,01,21,0.40
2006,02,17,01,22,0.40
2006,02,17,01,23,0.40
2006,02,17,01,24,0.40
2006,02,17,01,25,0.30
2006,02,17,01,26,0.30
2006,02,17,01,27,0.30
2006,02,17,01,28,0.30
2006,02,17,01,29,0.30
2006,02,17,01,30,0.30
2006,02,17,01,31,0.30
2006,02,17,01,32,0.30
2006,02,17,01,33,0.30
2006,02,17,01,34,0.30
2006,02,17,01,35,0.30
2006,02,17,01,36,0.30
2006,02,17,01,37,0.30
2006,02,17,01,38,0.30
2006,02,17,01,39,0.30
2006,02,17,01,40,0.30
2006,02,17,01,41,0.20
2006,02,17,01,42,0.20
2006,02,17,01,43,0.20
2006,02,17,01,44,0.20
2006,02,17,01,45,0.20
2006,02,17,01,46,0.20
2006,02,17,01,47,0.20
2006,02,17,01,48,0.20
2006,02,17,01,49,0.20
2006,02,17,01,50,0.20
2006,02,17,01,51,0.20
2006,02,17,01,52,0.20
2006,02,17,01,53,0.20
2006,02,17,01,54,0.20
2006,02,17,01,55,0.20
2006,02,17,01,56,0.20
2006,02,17,01,57,0.20
2006,02,17,01,58,0.20
2006,02,17,01,59,0.10
2006,02,17,02,00,0.10
2006,02,17,02,01,0.10
2006,02,17,02,02,0.10
2006,02,17,02,03,0.10
2006,02,17,02,04,0.10
2006,02,17,02,05,0.10
2006,02,17,02,06,0.10
2006,02,17,02,07,0.10
2006,02,17,02,08,0.10
2006,02,17,02,09,0.10
2006,02,17,02,10,0.10
2006,02,17,02,11,0.10
2006,02,17,02,12,0.10
2006,02,17,02,13,0.10
2006,02,17,02,14,0.10
2006,02,17,02,15,0.10
2006,02,17,02,16,0.10
2006,02,17,02,17,0.10
2006,02,17,02,18,0.10
2006,02,17,02,19,0.10
2006,02,17,02,20,0.10
2006,02,17,02,21,0.10
2006,02,17,02,22,0.10
2006,02,17,02,23,0.10
2006,02,17,02,24,0.10
2006,02,17,02,25,0.10
2006,02,17,02,26,0.10
2006,02,17,02,27,0.10
2006,02,17,02,28,0.10
2006,02,17,02,29,0.10
2006,02,17,02,30,0.10
2006,02,17,02,31,0.10
2006,02,17,02,32,0.10
2006,02,17,02,33,0.10
2006,02,17,02,34,0.10
2006,02,17,02,35,0.10
2006,02,17,02,36,0.10
2006,02,17,02,37,0.10
2006,02,17,02,38,0.10
2006,02,17,02,39,0.10
2006,02,17,02,40,0.10
2006,02,17,02,41,0.10
2006,02,17,02,42,0.10
2006,02,17,02,43,0.10
2006,02,17,02,44,0.00
2006,02,17,02,45,-0.10
2006,02,17,02,46,-0.10
2006,02,17,02,47,-0.10
2006,02,17,02,48,-0.10
2006,02,17,02,49,-0.10
2006,02,17,02,50,-0.10
2006,02,17,02,51,-0.10
2006,02,17,02,52,-0.10
2006,02,17,02,53,-0.10
2006,02,17,02,54,-0.10
2006,02,17,02,55,-0.10
2006,02,17,02,56,-0.10
2006,02,17,02,57,-0.10
2006,02,17,02,58,-0.10
2006,02,17,02,59,-0.10
2006,02,17,03,00,-0.10
2006,02,17,03,01,-0.10
2006,02,17,03,02,-0.10
2006,02,17,03,03,-0.10
2006,02,17,03,04,-0.10
2006,02,17,03,05,-0.10
2006,02,17,03,06,-0.10
2006,02,17,03,07,-0.10
2006,02,17,03,08,-0.10
2006,02,17,03,09,-0.10
2006,02,17,03,10,-0.10
2006,02,17,03,11,-0.10
2006,02,17,03,12,-0.10
2006,02,17,03,13,-0.10
2006,02,17,03,14,-0.10
2006,02,17,03,15,-0.10
2006,02,17,03,16,-0.10
2006,02,17,03,17,-0.10
2006,02,17,03,33,-0.20
2006,02,17,03,34,-0.20
2006,02,17,03,35,-0.20
2006,02,17,03,36,-0.20
2006,02,17,03,37,-0.20
2006,02,17,03,38,-0.20
2006,02,17,03,39,-0.20
2006,02,17,03,40,-0.20
2006,02,17,03,41,-0.20
2006,02,17,03,42,-0.20
2006,02,17,03,43,-0.20
2006,02,17,03,44,-0.20
2006,02,17,03,45,-0.20
2006,02,17,03,46,-0.20
2006,02,17,03,47,-0.20
2006,02,17,03,48,-0.20
2006,02,17,03,49,-0.20
2006,02,17,03,50,-0.20
2006,02,17,03,51,-0.20
2006,02,17,03,52,-0.30
2006,02,17,03,53,-0.30
2006,02,17,03,54,-0.30
2006,02,17,03,55,-0.30
2006,02,17,03,56,-0.30
2006,02,17,03,57,-0.30
2006,02,17,03,58,-0.30
2006,02,17,03,59,-0.30
2006,02,17,04,00,-0.30
2006,02,17,04,01,-0.30
2006,02,17,04,02,-0.40
2006,02,17,04,03,-0.40
2006,02,17,04,04,-0.40
2006,02,17,04,05,-0.40
2006,02,17,04,06,-0.40
2006,02,17,04,07,-0.40
2006,02,17,04,08,-0.40
2006,02,17,04,09,-0.40
2006,02,17,04,10,-0.40
2006,02,17,04,11,-0.40
2006,02,17,04,12,-0.40
2006,02,17,04,13,-0.40
2006,02,17,04,14,-0.40
2006,02,17,04,15,-0.40
2006,02,17,04,16,-0.40
2006,02,17,04,17,-0.40
2006,02,17,04,18,-0.40
2006,02,17,04,19,-0.40
2006,02,17,04,20,-0.40
2006,02,17,04,21,-0.40
2006,02,17,04,22,-0.40
2006,02,17,04,23,-0.60
2006,02,17,04,24,-0.60
2006,02,17,04,25,-0.60
2006,02,17,04,26,-0.60
2006,02,17,04,27,-0.60
2006,02,17,04,28,-0.60
2006,02,17,04,29,-0.60
2006,02,17,04,30,-0.60
2006,02,17,04,31,-0.60
2006,02,17,04,32,-0.60
2006,02,17,04,33,-0.70
2006,02,17,04,34,-0.70
2006,02,17,04,35,-0.70
2006,02,17,04,36,-0.70
2006,02,17,04,37,-0.80
2006,02,17,04,38,-0.80
2006,02,17,04,39,-0.80
2006,02,17,04,40,-0.80
2006,02,17,04,41,-0.80
2006,02,17,04,42,-0.80
2006,02,17,04,43,-0.80
2006,02,17,04,44,-0.90
2006,02,17,04,45,-0.90
2006,02,17,04,46,-0.90
2006,02,17,04,47,-0.90
2006,02,17,04,48,-0.90
2006,02,17,04,49,-0.90
2006,02,17,04,50,-0.90
2006,02,17,04,51,-0.90
2006,02,17,04,52,-0.90
2006,02,17,04,53,-0.90
2006,02,17,04,54,-0.90
2006,02,17,04,55,-0.90
2006,02,17,04,56,-0.90
2006,02,17,04,57,-0.90
2006,02,17,04,58,-0.90
2006,02,17,04,59,-1.00
2006,02,17,05,00,-1.10
2006,02,17,05,01,-1.10
2006,02,17,05,02,-1.10
2006,02,17,05,03,-1.10
2006,02,17,05,04,-1.10
2006,02,17,05,05,-1.10
2006,02,17,05,06,-1.10
2006,02,17,05,07,-1.10
2006,02,17,05,08,-1.10
2006,02,17,05,09,-1.10
2006,02,17,05,10,-1.10
2006,02,17,05,11,-1.20
2006,02,17,05,12,-1.20
2006,02,17,05,13,-1.10
2006,02,17,05,14,-1.10
2006,02,17,05,15,-1.10
2006,02,17,05,16,-1.10
2006,02,17,05,17,-1.20
2006,02,17,05,18,-1.20
2006,02,17,05,19,-1.20
2006,02,17,05,20,-1.20
2006,02,17,05,21,-1.20
2006,02,17,05,22,-1.20
2006,02,17,05,23,-1.20
2006,02,17,05,24,-1.20
2006,02,17,05,25,-1.20
2006,02,17,05,26,-1.20
2006,02,17,05,27,-1.20
2006,02,17,05,28,-1.20
2006,02,17,05,29,-1.20
2006,02,17,05,30,-1.20
2006,02,17,05,31,-1.20
2006,02,17,05,32,-1.20
2006,02,17,05,33,-1.20
2006,02,17,05,34,-1.20
2006,02,17,05,35,-1.20
2006,02,17,05,36,-1.20
2006,02,17,05,37,-1.30
2006,02,17,05,38,-1.30
2006,02,17,05,39,-1.30
2006,02,17,05,40,-1.30
2006,02,17,05,41,-1.30
2006,02,17,05,42,-1.30
2006,02,17,05,43,-1.30
2006,02,17,05,44,-1.30
2006,02,17,05,45,-1.30
2006,02,17,05,46,-1.30
2006,02,17,05,47,-1.30
2006,02,17,05,48,-1.30
2006,02,17,05,49,-1.40
2006,02,17,05,50,-1.40
2006,02,17,05,51,-1.40
2006,02,17,05,52,-1.40
2006,02,17,05,53,-1.40
2006,02,17,05,54,-1.40
2006,02,17,05,55,-1.40
2006,02,17,05,56,-1.40
2006,02,17,05,57,-1.40
2006,02,17,05,58,-1.50
2006,02,17,05,59,-1.50
2006,02,17,06,00,-1.50
2006,02,17,06,01,-1.50
2006,02,17,06,02,-1.50
2006,02,17,06,03,-1.40
2006,02,17,06,04,-1.40
2006,02,17,06,05,-1.40
2006,02,17,06,06,-1.40
2006,02,17,06,07,-1.40
2006,02,17,06,08,-1.40
2006,02,17,06,09,-1.40
2006,02,17,06,10,-1.40
2006,02,17,06,11,-1.40
2006,02,17,06,12,-1.50
2006,02,17,06,13,-1.40
2006,02,17,06,14,-1.40
2006,02,17,06,15,-1.40
2006,02,17,06,16,-1.40
2006,02,17,06,17,-1.40
2006,02,17,06,18,-1.40
2006,02,17,06,19,-1.40
2006,02,17,06,20,-1.40
2006,02,17,06,21,-1.40
2006,02,17,06,22,-1.40
2006,02,17,06,23,-1.40
2006,02,17,06,24,-1.40
2006,02,17,06,25,-1.40
2006,02,17,06,26,-1.40
2006,02,17,06,27,-1.40
2006,02,17,06,28,-1.40
2006,02,17,06,29,-1.40
2006,02,17,06,30,-1.40
2006,02,17,06,31,-1.40
2006,02,17,06,32,-1.40
2006,02,17,06,33,-1.50
2006,02,17,06,34,-1.50
2006,02,17,06,35,-1.50
2006,02,17,06,36,-1.50
2006,02,17,06,37,-1.50
2006,02,17,06,38,-1.50
2006,02,17,06,39,-1.50
2006,02,17,06,40,-1.50
2006,02,17,06,41,-1.50
2006,02,17,06,42,-1.50
2006,02,17,06,43,-1.50
2006,02,17,06,44,-1.50
2006,02,17,06,45,-1.50
2006,02,17,06,46,-1.50
2006,02,17,06,47,-1.50
2006,02,17,06,48,-1.60
2006,02,17,06,49,-1.60
2006,02,17,06,50,-1.60
2006,02,17,06,51,-1.60
2006,02,17,06,52,-1.60
2006,02,17,06,53,-1.60
2006,02,17,06,54,-1.60
2006,02,17,06,55,-1.60
2006,02,17,06,56,-1.60
2006,02,17,06,57,-1.60
2006,02,17,06,58,-1.60
2006,02,17,06,59,-1.60
2006,02,17,07,00,-1.60
2006,02,17,07,01,-1.60
2006,02,17,07,02,-1.60
2006,02,17,07,03,-1.60
2006,02,17,07,04,-1.70
2006,02,17,07,05,-1.70
2006,02,17,07,06,-1.70
2006,02,17,07,07,-1.70
2006,02,17,07,08,-1.70
2006,02,17,07,09,-1.70
2006,02,17,07,10,-1.70
2006,02,17,07,11,-1.70
2006,02,17,07,12,-1.70
2006,02,17,07,13,-1.70
2006,02,17,07,14,-1.70
2006,02,17,07,15,-1.70
2006,02,17,07,16,-1.70
2006,02,17,07,17,-1.70
2006,02,17,07,18,-1.70
2006,02,17,07,19,-1.70
2006,02,17,07,20,-1.70
2006,02,17,07,21,-1.70
2006,02,17,07,22,-1.70
2006,02,17,07,23,-1.80
2006,02,17,07,24,-1.80
2006,02,17,07,25,-1.80
2006,02,17,07,26,-1.80
2006,02,17,07,27,-1.80
2006,02,17,07,28,-1.80
2006,02,17,07,29,-1.80
2006,02,17,07,30,-1.80
2006,02,17,07,31,-1.80
2006,02,17,07,32,-1.80
2006,02,17,07,33,-1.80
2006,02,17,07,34,-1.70
2006,02,17,07,35,-1.70
2006,02,17,07,36,-1.70
2006,02,17,07,37,-1.70
2006,02,17,07,38,-1.70
2006,02,17,07,39,-1.70
2006,02,17,07,40,-1.70
2006,02,17,07,41,-1.70
2006,02,17,07,42,-1.70
2006,02,17,07,43,-1.60
2006,02,17,07,44,-1.60
2006,02,17,07,45,-1.60
2006,02,17,07,46,-1.50
2006,02,17,07,47,-1.50
2006,02,17,07,48,-1.50
2006,02,17,07,49,-1.50
2006,02,17,07,50,-1.40
2006,02,17,07,51,-1.40
2006,02,17,07,52,-1.40
2006,02,17,07,53,-1.40
2006,02,17,07,54,-1.40
2006,02,17,07,55,-1.40
2006,02,17,07,56,-1.40
2006,02,17,07,57,-1.40
2006,02,17,07,58,-1.40
2006,02,17,07,59,-1.40
2006,02,17,08,00,-1.40
2006,02,17,08,01,-1.20
2006,02,17,08,02,-1.20
2006,02,17,08,03,-1.10
2006,02,17,08,04,-1.10
2006,02,17,08,05,-1.10
2006,02,17,08,06,-1.10
2006,02,17,08,07,-1.10
2006,02,17,08,08,-1.10
2006,02,17,08,09,-1.10
2006,02,17,08,10,-1.10
2006,02,17,08,11,-1.10
2006,02,17,08,12,-1.10
2006,02,17,08,13,-1.10
2006,02,17,08,14,-1.10
2006,02,17,08,15,-1.10
2006,02,17,08,16,-1.10
2006,02,17,08,17,-1.10
2006,02,17,08,49,-0.60
2006,02,17,08,50,-0.60
2006,02,17,08,51,-0.60
2006,02,17,08,52,-0.60
2006,02,17,08,53,-0.60
2006,02,17,08,54,-0.60
2006,02,17,08,55,-0.60
2006,02,17,08,56,-0.60
2006,02,17,08,57,-0.60
2006,02,17,08,58,-0.50
2006,02,17,08,59,-0.40
2006,02,17,09,00,-0.40
2006,02,17,09,01,-0.40
2006,02,17,09,02,-0.40
2006,02,17,09,03,-0.40
2006,02,17,09,04,-0.40
2006,02,17,09,05,-0.40
2006,02,17,09,06,-0.40
2006,02,17,09,07,-0.40
2006,02,17,09,08,-0.40
2006,02,17,09,09,-0.40
2006,02,17,09,10,-0.40
2006,02,17,09,11,-0.40
2006,02,17,09,12,-0.40
2006,02,17,09,13,-0.50
2006,02,17,09,14,-0.60
2006,02,17,09,15,-0.60
2006,02,17,09,16,-0.60
2006,02,17,09,17,-0.60
2006,02,17,09,18,-0.60
2006,02,17,09,19,-0.60
2006,02,17,09,20,-0.50
2006,02,17,09,21,-0.40
2006,02,17,09,22,-0.30
2006,02,17,09,23,-0.30
2006,02,17,09,24,-0.30
2006,02,17,09,25,-0.30
2006,02,17,09,26,-0.30
2006,02,17,09,27,-0.20
2006,02,17,09,28,-0.20
2006,02,17,09,29,-0.20
2006,02,17,09,30,-0.10
2006,02,17,09,31,-0.10
2006,02,17,09,32,-0.10
2006,02,17,09,33,-0.10
2006,02,17,09,34,0.00
2006,02,17,09,35,0.00
2006,02,17,09,36,-0.10
2006,02,17,09,37,-0.10
2006,02,17,09,38,-0.10
2006,02,17,09,39,0.00
2006,02,17,09,40,0.10
2006,02,17,09,41,0.10
2006,02,17,09,42,0.20
2006,02,17,09,43,0.20
2006,02,17,09,44,0.20
2006,02,17,09,45,0.10
2006,02,17,09,46,0.10
2006,02,17,09,47,0.10
2006,02,17,09,48,0.10
2006,02,17,09,49,0.10
2006,02,17,09,50,0.10
2006,02,17,09,51,0.30
2006,02,17,09,52,0.40
2006,02,17,09,53,0.40
2006,02,17,09,54,0.40
2006,02,17,09,55,0.40
2006,02,17,09,56,0.40
2006,02,17,09,57,0.40
2006,02,17,09,58,0.40
2006,02,17,09,59,0.40
2006,02,17,10,00,0.40
2006,02,17,10,01,0.40
2006,02,17,10,02,0.40
2006,02,17,10,03,0.40
2006,02,17,10,04,0.40
2006,02,17,10,05,0.40
2006,02,17,10,06,0.40
2006,02,17,10,07,0.40
2006,02,17,11,31,1.00
2006,02,17,11,32,1.10
2006,02,17,11,33,1.10
2006,02,17,11,34,1.10
2006,02,17,11,35,1.10
2006,02,17,11,36,1.10
2006,02,17,11,37,1.10
2006,02,17,11,38,1.10
2006,02,17,11,39,1.10
2006,02,17,11,40,1.10
2006,02,17,11,41,1.10
2006,02,17,11,42,1.10
2006,02,17,11,43,1.10
2006,02,17,11,44,1.10
2006,02,17,13,43,2.30
2006,02,17,13,44,2.40
2006,02,17,13,45,2.40
2006,02,17,13,46,2.50
2006,02,17,13,47,2.50
2006,02,17,13,48,2.60
2006,02,17,13,49,2.60
2006,02,17,13,50,2.60
2006,02,17,13,51,2.60
2006,02,17,13,52,2.60
2006,02,17,13,53,2.70
2006,02,17,13,54,2.70
2006,02,17,13,55,2.60
2006,02,17,13,56,2.50
2006,02,17,13,57,2.40
2006,02,17,13,58,2.40
2006,02,17,13,59,2.40
2006,02,17,14,00,2.40
2006,02,17,14,01,2.40
2006,02,17,14,02,2.40
2006,02,17,14,03,2.50
2006,02,17,14,04,2.50
2006,02,17,14,05,2.50
2006,02,17,14,06,2.60
2006,02,17,14,07,2.50
2006,02,17,14,08,2.50
2006,02,17,14,09,2.60
2006,02,17,14,10,2.70
2006,02,17,14,11,2.70
2006,02,17,14,12,2.70
2006,02,17,14,13,2.70
2006,02,17,14,14,2.70
2006,02,17,14,15,2.80
2006,02,17,14,16,2.80
2006,02,17,14,17,2.90
2006,02,17,14,18,2.90
2006,02,17,14,19,2.90
2006,02,17,14,20,2.80
2006,02,17,14,21,2.70
2006,02,17,14,22,2.70
2006,02,17,14,23,2.70
2006,02,17,14,24,2.70
2006,02,17,14,25,2.70
2006,02,17,14,26,2.60
2006,02,17,14,27,2.60
2006,02,17,14,28,2.60
2006,02,17,14,29,2.60
2006,02,17,14,30,2.60
2006,02,17,14,31,2.60
2006,02,17,14,32,2.60
2006,02,17,14,33,2.50
2006,02,17,14,34,2.30
2006,02,17,14,35,2.30
2006,02,17,14,36,2.30
2006,02,17,14,37,2.30
2006,02,17,14,38,2.30
2006,02,17,14,39,2.40
2006,02,17,14,40,2.40
2006,02,17,14,41,2.50
2006,02,17,14,42,2.60
2006,02,17,14,43,2.60
2006,02,17,14,44,2.70
2006,02,17,14,45,2.70
2006,02,17,14,46,2.70
2006,02,17,14,47,2.60
2006,02,17,14,48,2.60
2006,02,17,14,49,2.60
2006,02,17,14,50,2.70
2006,02,17,14,51,2.70
2006,02,17,14,52,2.70
2006,02,17,14,53,2.70
2006,02,17,14,54,2.60
2006,02,17,14,55,2.60
2006,02,17,14,56,2.60
2006,02,17,14,57,2.60
2006,02,17,14,58,2.60
2006,02,17,14,59,2.70
2006,02,17,15,00,2.70
2006,02,17,15,01,2.70
2006,02,17,15,02,2.80
2006,02,17,15,03,2.90
2006,02,17,15,04,2.90
2006,02,17,15,05,2.90
2006,02,17,15,06,2.90
2006,02,17,15,07,2.90
2006,02,17,15,08,2.90
2006,02,17,15,09,2.90
2006,02,17,15,10,2.90
2006,02,17,15,11,2.90
2006,02,17,15,12,2.90
2006,02,17,15,13,2.80
2006,02,17,15,14,2.70
2006,02,17,15,15,2.70
2006,02,17,15,16,2.70
2006,02,17,15,17,2.70
2006,02,17,15,18,2.70
2006,02,17,15,19,2.70
2006,02,17,15,20,2.70
2006,02,17,15,21,2.70
2006,02,17,15,22,2.70
2006,02,17,15,23,2.70
2006,02,17,15,24,2.70
2006,02,17,15,25,2.70
2006,02,17,15,26,2.70
2006,02,17,15,27,2.70
2006,02,17,15,42,2.70
2006,02,17,15,43,2.70
2006,02,17,15,44,2.70
2006,02,17,15,45,2.70
2006,02,17,15,46,2.70
2006,02,17,15,47,2.70
2006,02,17,15,48,2.70
2006,02,17,15,49,2.70
2006,02,17,15,50,2.70
2006,02,17,15,51,2.70
2006,02,17,15,52,2.70
2006,02,17,15,53,2.70
2006,02,17,15,54,2.70
2006,02,17,15,55,2.70
2006,02,17,15,56,2.70
2006,02,17,15,57,2.70
2006,02,17,15,58,2.70
2006,02,17,15,59,2.70
2006,02,17,16,00,2.60
2006,02,17,16,01,2.60
2006,02,17,16,02,2.60
2006,02,17,16,03,2.50
2006,02,17,16,04,2.50
2006,02,17,16,05,2.50
2006,02,17,16,06,2.50
2006,02,17,16,07,2.50
2006,02,17,16,08,2.50
2006,02,17,16,09,2.50
2006,02,17,16,10,2.40
2006,02,17,16,11,2.40
2006,02,17,16,12,2.40
2006,02,17,16,13,2.40
2006,02,17,16,14,2.40
2006,02,17,16,15,2.40
2006,02,17,16,16,2.40
2006,02,17,16,17,2.40
2006,02,17,16,18,2.40
2006,02,17,16,19,2.40
2006,02,17,16,20,2.40
2006,02,17,16,21,2.40
2006,02,17,16,22,2.40
2006,02,17,16,23,2.40
2006,02,17,16,24,2.40
2006,02,17,16,25,2.40
2006,02,17,16,26,2.40
2006,02,17,16,27,2.40
2006,02,17,16,28,2.40
2006,02,17,16,29,2.40
2006,02,17,16,30,2.40
2006,02,17,16,31,2.40
2006,02,17,16,32,2.40
2006,02,17,16,33,2.40
2006,02,17,16,34,2.40
2006,02,17,16,35,2.40
2006,02,17,16,36,2.40
2006,02,17,17,09,2.00
2006,02,17,17,10,2.00
2006,02,17,17,11,2.00
2006,02,17,17,12,2.00
2006,02,17,17,13,2.00
2006,02,17,17,14,2.00
2006,02,17,17,15,1.90
2006,02,17,17,16,1.90
2006,02,17,17,17,1.90
2006,02,17,17,18,1.90
2006,02,17,17,19,1.90
2006,02,17,17,20,1.90
2006,02,17,17,21,1.90
2006,02,17,17,22,1.90
2006,02,17,17,23,1.90
2006,02,17,17,24,1.90
2006,02,17,17,25,1.90
2006,02,17,17,26,1.90
2006,02,17,17,27,1.80
2006,02,17,17,28,1.80
2006,02,17,17,29,1.80
2006,02,17,17,30,1.80
2006,02,17,17,31,1.80
2006,02,17,17,32,1.80
2006,02,17,17,33,1.80
2006,02,17,17,34,1.80
2006,02,17,17,35,1.80
2006,02,17,17,36,1.80
2006,02,17,17,37,1.80
2006,02,17,17,38,1.80
2006,02,17,17,39,1.80
2006,02,17,17,40,1.80
2006,02,17,17,41,1.80
2006,02,17,17,42,1.80
2006,02,17,17,43,1.80
2006,02,17,17,44,1.80
2006,02,17,17,45,1.80
2006,02,17,17,46,1.80
2006,02,17,17,47,1.80
2006,02,17,17,48,1.80
2006,02,17,17,49,1.80
2006,02,17,17,50,1.80
2006,02,17,17,51,1.80
2006,02,17,17,52,1.80
2006,02,17,17,53,1.80
2006,02,17,17,54,1.80
2006,02,17,17,55,1.80
2006,02,17,17,56,1.80
2006,02,17,17,57,1.80
2006,02,17,17,58,1.80
2006,02,17,17,59,1.80
2006,02,17,18,00,1.80
2006,02,17,18,01,1.80
2006,02,17,19,58,1.80
2006,02,17,19,59,1.80
2006,02,17,20,00,1.80
2006,02,17,20,01,1.80
2006,02,17,20,02,1.80
2006,02,17,20,03,1.80
2006,02,17,20,04,1.80
2006,02,17,20,05,1.80
2006,02,17,20,06,1.80
2006,02,17,20,07,1.80
2006,02,17,20,08,1.80
2006,02,17,20,09,1.80
2006,02,17,20,43,1.80
2006,02,17,20,44,1.80
2006,02,17,20,45,1.80
2006,02,17,20,46,1.70
2006,02,17,20,47,1.60
2006,02,17,20,48,1.60
2006,02,17,20,49,1.60
2006,02,17,20,50,1.50
2006,02,17,20,51,1.50
2006,02,17,20,52,1.50
2006,02,17,20,53,1.50
2006,02,17,20,54,1.50
2006,02,17,20,55,1.50
2006,02,17,20,56,1.40
2006,02,17,20,57,1.40
2006,02,17,20,58,1.40
2006,02,17,20,59,1.40
2006,02,17,21,00,1.30
2006,02,17,21,01,1.40
2006,02,17,21,02,1.40
2006,02,17,21,03,1.50
2006,02,17,21,04,1.50
2006,02,17,21,05,1.50
2006,02,17,21,06,1.50
2006,02,17,21,07,1.50
2006,02,17,21,08,1.50
2006,02,17,21,09,1.50
2006,02,17,21,10,1.50
2006,02,17,21,11,1.50
2006,02,17,21,12,1.50
2006,02,17,21,13,1.50
2006,02,17,21,14,1.50
2006,02,17,21,15,1.50
2006,02,17,21,16,1.50
2006,02,17,21,17,1.50
2006,02,17,21,18,1.40
2006,02,17,21,19,1.40
2006,02,17,21,20,1.40
2006,02,17,21,21,1.30
2006,02,17,21,22,1.30
2006,02,17,21,23,1.30
2006,02,17,21,24,1.30
2006,02,17,21,25,1.30
2006,02,17,21,26,1.30
2006,02,17,21,27,1.30
2006,02,17,21,28,1.30
2006,02,17,21,29,1.30
2006,02,17,21,30,1.30
2006,02,17,21,31,1.30
2006,02,17,21,32,1.30
2006,02,17,21,33,1.30
2006,02,17,21,34,1.40
2006,02,17,21,35,1.40
2006,02,17,21,36,1.40
2006,02,17,21,37,1.30
2006,02,17,21,38,1.30
2006,02,17,21,39,1.30
2006,02,17,21,40,1.30
2006,02,17,21,41,1.30
2006,02,17,21,42,1.30
2006,02,17,21,43,1.30
2006,02,17,21,44,1.30
2006,02,17,21,45,1.30
2006,02,17,21,46,1.30
2006,02,17,21,47,1.30
2006,02,17,21,48,1.30
2006,02,17,21,49,1.30
2006,02,17,21,50,1.30
2006,02,17,21,51,1.30
2006,02,17,21,52,1.30
2006,02,17,21,53,1.30
2006,02,17,21,54,1.30
2006,02,17,21,55,1.30
2006,02,17,21,56,1.30
2006,02,17,21,57,1.30
2006,02,17,21,58,1.30
2006,02,17,21,59,1.30
2006,02,17,22,00,1.30
2006,02,17,22,01,1.30
2006,02,17,22,02,1.30
2006,02,17,22,03,1.30
2006,02,17,22,04,1.30
2006,02,17,22,05,1.30
2006,02,17,22,06,1.30
2006,02,17,22,07,1.30
2006,02,17,22,08,1.30
2006,02,17,22,09,1.30
2006,02,17,22,10,1.30
2006,02,17,22,11,1.30
2006,02,17,22,12,1.30
2006,02,17,22,13,1.30
2006,02,17,22,14,1.30
2006,02,17,22,15,1.30
2006,02,17,22,16,1.30
2006,02,17,22,17,1.30
2006,02,17,22,18,1.30
2006,02,17,22,19,1.30
2006,02,17,22,20,1.30
2006,02,17,22,21,1.30
2006,02,17,22,22,1.30
2006,02,17,22,23,1.30
2006,02,17,22,24,1.30
2006,02,17,22,25,1.30
2006,02,17,22,26,1.30
2006,02,17,22,27,1.30
2006,02,17,22,28,1.30
2006,02,17,22,29,1.30
2006,02,17,22,30,1.30
2006,02,17,22,31,1.20
2006,02,17,22,32,1.20
2006,02,17,22,33,1.20
2006,02,17,22,34,1.20
2006,02,17,22,35,1.20
2006,02,17,22,36,1.20
2006,02,17,22,37,1.20
2006,02,17,22,38,1.10
2006,02,17,22,39,1.10
2006,02,17,22,40,1.10
2006,02,17,22,41,1.10
2006,02,17,22,42,1.10
2006,02,17,22,43,1.10
2006,02,17,22,44,1.10
2006,02,17,22,45,1.10
2006,02,17,22,46,1.10
2006,02,17,22,47,1.10
2006,02,17,22,48,1.10
2006,02,17,22,49,1.10
2006,02,17,22,50,1.10
2006,02,17,22,51,1.10
2006,02,17,22,52,1.00
2006,02,17,22,53,1.00
2006,02,17,22,54,1.00
2006,02,17,22,55,1.00
2006,02,17,22,56,1.00
2006,02,17,22,57,0.90
2006,02,17,22,58,0.80
2006,02,17,22,59,0.90
2006,02,17,23,00,0.90
2006,02,17,23,01,0.90
2006,02,17,23,02,0.90
2006,02,17,23,03,0.80
2006,02,17,23,04,0.90
2006,02,17,23,05,0.90
2006,02,17,23,06,0.90
2006,02,17,23,07,1.00
2006,02,17,23,08,1.00
2006,02,17,23,09,0.90
2006,02,17,23,10,0.90
2006,02,17,23,11,0.90
2006,02,17,23,12,0.90
2006,02,17,23,13,0.90
2006,02,17,23,14,0.90
2006,02,17,23,15,0.90
2006,02,17,23,16,0.90
2006,02,17,23,17,0.90
2006,02,17,23,18,1.00
2006,02,17,23,19,1.00
2006,02,17,23,20,1.00
2006,02,17,23,21,0.90
2006,02,17,23,22,0.90
2006,02,17,23,23,0.90
2006,02,17,23,24,0.90
2006,02,17,23,25,0.80
2006,02,17,23,26,0.80
2006,02,17,23,27,0.80
2006,02,17,23,28,0.80
2006,02,17,23,29,0.80
2006,02,17,23,30,0.80
2006,02,17,23,31,0.80
2006,02,17,23,32,0.80
2006,02,17,23,33,0.80
2006,02,17,23,34,0.80
2006,02,17,23,35,0.80
2006,02,17,23,36,0.80
2006,02,17,23,37,0.80
2006,02,17,23,38,0.80
2006,02,17,23,39,0.70
2006,02,17,23,40,0.70
2006,02,17,23,41,0.70
2006,02,17,23,42,0.70
2006,02,17,23,43,0.70
2006,02,17,23,44,0.70
2006,02,17,23,45,0.70
2006,02,17,23,46,0.70
2006,02,17,23,47,0.80
2006,02,17,23,48,0.80
2006,02,17,23,49,0.80
2006,02,17,23,50,0.70
2006,02,17,23,51,0.70
2006,02,17,23,52,0.70
2006,02,17,23,53,0.70
2006,02,17,23,54,0.70
2006,02,17,23,55,0.70
2006,02,17,23,56,0.70
2006,02,17,23,57,0.70
2006,02,17,23,58,0.70
2006,02,17,23,59,0.70
